"Pseudo-MPEC" for X89848

Created 2026 Jul 26 2:35:17 UT using Find_Orb

Click here for an explanation of pseudo-MPECs

 
 Astrometry: 
     X89848 * C2026 07 14.75760922 05 53.365-13 00 53.45   ~7NF5 19.11RVNEOCPD29
     X89848   C2026 07 14.77086722 05 53.205-13 00 54.60   ~7NF5 19.50RVNEOCPD29
     X89848   C2026 07 14.78412422 05 53.288-13 00 55.54   ~7NF5 19.50RVNEOCPD29

Station data:
(D29) Purple Mountain Observatory, XuYi Station  (N32.734363 E118.463900)
   China.  Observers H. B. Zhao, B. Li, G. Zhaori, R. Q. Hong, L. F. Hu.
   Measurers H. B. Zhao, B. Li. H. Lu, G. Zhaori. 1.04-m f/1.8 Schmidt + CCD.

Orbital elements:  X89848
   Perihelion 2026 Dec 2.512833 +/- 77.8 TT = 12:18:28.7 (JD 2461377.012833)
Epoch 2026 Jul 15.0 TT = JDT 2461236.5   Earth MOID: 0.0473   Ma: 0.0190
M 327.179012672 +/- 32              (J2000 ecliptic)             AutoNEOCP
n   0.233579998 +/- 0.303           Peri.  326.410396 +/- 100
a   2.611232934 +/- 2.26            Node    86.818540 +/- 59
e   0.60339208 +/- 0.259            Incl.    0.936286 +/- 1.0
P   4.21957                H 17.39  G  0.15   U 11.9  SR
q 1.035635638 +/- 0.974    Q 4.186830231 +/- 377
From 3 observations 2026 July 14 (38.2 min); mean residual 0".59
Residuals in arcseconds: 
260714 D29  .61+  .09+    260714 D29  1.2-  .06-    260714 D29  .60+  .01-    

Ephemerides (geocentric):
Date (UTC) HH   RA             Dec           delta  r     elong  mag " sig PA
---- --------  ------------   ------------  ------ ------ -----  --- --------
2026 07 26 03  22 03 43.752   -13 28 08.42  .85921 1.8290 154.5 19.2  51d  87
2026 07 26 04  22 03 42.764   -13 28 17.46  .85871 1.8287 154.6 19.2  52d  87
2026 07 26 05  22 03 41.771   -13 28 26.53  .85821 1.8283 154.6 19.2  52d  87
2026 07 26 06  22 03 40.775   -13 28 35.62  .85771 1.8280 154.7 19.2  51d  85
2026 07 26 07  22 03 39.775   -13 28 44.73  .85721 1.8277 154.7 19.2  51d  85
2026 07 26 08  22 03 38.770   -13 28 53.86  .85671 1.8273 154.7 19.1  51d  85
2026 07 26 09  22 03 37.762   -13 29 03.01  .85622 1.8270 154.8 19.1  51d  85
2026 07 26 10  22 03 36.750   -13 29 12.19  .85572 1.8267 154.8 19.1  51d  85
2026 07 26 11  22 03 35.734   -13 29 21.39  .85522 1.8264 154.9 19.1  51d  85
2026 07 26 12  22 03 34.714   -13 29 30.62  .85472 1.8260 154.9 19.1  51d  85
2026 07 26 13  22 03 33.690   -13 29 39.86  .85422 1.8257 155.0 19.1  51d  85
2026 07 26 14  22 03 32.663   -13 29 49.13  .85372 1.8254 155.0 19.1  52d  85
2026 07 26 15  22 03 31.631   -13 29 58.42  .85323 1.8250 155.1 19.1  52d  85
2026 07 26 16  22 03 30.595   -13 30 07.74  .85273 1.8247 155.1 19.1  52d  85
2026 07 26 17  22 03 29.555   -13 30 17.08  .85223 1.8244 155.1 19.1  52d  85
2026 07 26 18  22 03 28.512   -13 30 26.44  .85174 1.8240 155.2 19.1  52d  85
2026 07 26 19  22 03 27.464   -13 30 35.82  .85124 1.8237 155.2 19.1  52d  85
2026 07 26 20  22 03 26.413   -13 30 45.23  .85075 1.8234 155.3 19.1  52d  85
2026 07 26 21  22 03 25.357   -13 30 54.65  .85025 1.8230 155.3 19.1  52d  85
2026 07 26 22  22 03 24.298   -13 31 04.10  .84976 1.8227 155.4 19.1  52d  85
2026 07 26 23  22 03 23.234   -13 31 13.58  .84926 1.8224 155.4 19.1  52d  85
2026 07 27 00  22 03 22.167   -13 31 23.08  .84877 1.8220 155.5 19.1  52d  85
2026 07 27 01  22 03 21.095   -13 31 32.59  .84827 1.8217 155.5 19.1  52d  85
2026 07 27 02  22 03 20.020   -13 31 42.14  .84778 1.8214 155.5 19.1  52d  85
2026 07 27 03  22 03 18.941   -13 31 51.70  .84729 1.8210 155.6 19.1  52d  85
2026 07 27 04  22 03 17.858   -13 32 01.29  .84679 1.8207 155.6 19.1  52d  85
2026 07 27 05  22 03 16.770   -13 32 10.90  .84630 1.8204 155.7 19.1  52d  85
2026 07 27 06  22 03 15.679   -13 32 20.53  .84581 1.8200 155.7 19.1  52d  85
2026 07 27 07  22 03 14.584   -13 32 30.19  .84531 1.8197 155.8 19.1  52d  85
2026 07 27 08  22 03 13.485   -13 32 39.87  .84482 1.8194 155.8 19.1  52d  85
2026 07 27 09  22 03 12.382   -13 32 49.57  .84433 1.8190 155.9 19.1  52d  85
2026 07 27 10  22 03 11.275   -13 32 59.30  .84384 1.8187 155.9 19.1  52d  85
2026 07 27 11  22 03 10.164   -13 33 09.04  .84335 1.8184 155.9 19.1  52d  85
2026 07 27 12  22 03 09.049   -13 33 18.81  .84286 1.8181 156.0 19.1  52d  85
2026 07 27 13  22 03 07.930   -13 33 28.61  .84237 1.8177 156.0 19.1  52d  85
2026 07 27 14  22 03 06.807   -13 33 38.42  .84188 1.8174 156.1 19.1  52d  85
2026 07 27 15  22 03 05.679   -13 33 48.26  .84139 1.8171 156.1 19.1  52d  85
2026 07 27 16  22 03 04.548   -13 33 58.12  .84090 1.8167 156.2 19.1  52d  85
2026 07 27 17  22 03 03.413   -13 34 08.01  .84041 1.8164 156.2 19.1  52d  85
2026 07 27 18  22 03 02.275   -13 34 17.91  .83992 1.8161 156.3 19.1  52d  85
2026 07 27 19  22 03 01.132   -13 34 27.84  .83943 1.8157 156.3 19.1  52d  85
2026 07 27 20  22 02 59.985   -13 34 37.80  .83894 1.8154 156.4 19.1  52d  85
2026 07 27 21  22 02 58.834   -13 34 47.77  .83845 1.8151 156.4 19.1  52d  85
2026 07 27 22  22 02 57.679   -13 34 57.77  .83797 1.8147 156.4 19.1  52d  85
2026 07 27 23  22 02 56.520   -13 35 07.79  .83748 1.8144 156.5 19.1  52d  85
2026 07 28 00  22 02 55.357   -13 35 17.83  .83699 1.8141 156.5 19.1  52d  85
2026 07 28 01  22 02 54.190   -13 35 27.90  .83651 1.8137 156.6 19.0  52d  85
2026 07 28 02  22 02 53.019   -13 35 37.99  .83602 1.8134 156.6 19.0  52d  85